Weather History for South Bend, IN

Change the Weather History Date:

Monday, October 25, 2010

  Actual Average Record
Temperature  
Mean Temperature 65 °F 49 °F  
Max Temperature 72 °F 58 °F 80 °F (1963)
Min Temperature 58 °F 40 °F 23 °F (1930)
Degree Days  
Heating Degree Days 0 16  
Month to date heating degree days 256 305  
Since 1 July heating degree days 360 439  
Cooling Degree Days 0 0  
Month to date cooling degree days 12 8  
Year to date cooling degree days 1022 772  
Growing Degree Days 14 (Base 50)    
Moisture  
Dew Point 58 °F    
Average Humidity 79    
Maximum Humidity 100    
Minimum Humidity 57    
Precipitation  
Precipitation 0.75 in 0.10 in 1.60 in (1991)
Month to date precipitation 1.11 2.68  
Year to date precipitation 26.92 31.48  
Snow  
Snow 0.00 in 0.00 in 2.30 in (1962)
Month to date snowfall 0.0 0.2  
Since 1 July snowfall 0.0 0.2  
Since 1 September snowfall 0.2  
Snow Depth 0.00 in    
Sea Level Pressure  
Sea Level Pressure 29.60 in    
Wind  
Wind Speed 11 mph (SSW)    
Max Wind Speed 22 mph    
Max Gust Speed 29 mph    
Visibility 8 miles    
Events Rain , Thunderstorm    
T = Trace of Precipitation, MM = Missing Value Source: NWS Daily Summary

Daily Weather History Graph

Daily Weather History Graph

Search for Another Location

Airport:

Trip Planner

Search our weather history database for the weather conditions in past years. The results will help you decide how hot, cold, wet, or windy it might be!

Date:

Astronomy

Oct. 25, 2010 Rise Set
Actual Time 8:08 AM EDT 6:49 PM EDT
Civil Twilight 7:40 AM EDT 7:17 PM EDT
Nautical Twilight 7:07 AM EDT 7:49 PM EDT
Astronomical Twilight 6:35 AM EDT 8:22 PM EDT
Moon 8:13 PM EDT (10/25) 10:54 AM EDT (10/25)
Length of Visible Light 11h 37m
Length of Day
10h 40m
Waning Gibbous, 93% of the Moon is Illuminated
Oct 25
Waning Gibbous
Oct 30
Last Quarter
Nov 6
New
Nov 13
First Quarter
Nov 21
Full

Hourly Weather History & Observations

Time (EDT) Temp. Dew Point Humidity Pressure Visibility Wind Dir Wind Speed Gust Speed Precip Events Conditions
12:54 AM 64.9 °F 57.9 °F 78% 29.65 in 10.0 mi South 16.1 mph - N/A   Partly Cloudy
1:14 AM 64.4 °F 59.0 °F 83% 29.67 in 10.0 mi SSW 12.7 mph - N/A Thunderstorm Thunderstorm
1:26 AM 64.4 °F 57.2 °F 77% 29.67 in 10.0 mi West 13.8 mph 21.9 mph 0.00 in Rain , Thunderstorm Light Thunderstorms and Rain
1:49 AM 59.0 °F 53.6 °F 82% 29.67 in 1.5 mi WSW 4.6 mph - 0.10 in Rain , Thunderstorm Heavy Thunderstorms and Rain
1:54 AM 57.9 °F 55.0 °F 90% 29.66 in 3.0 mi SW 5.8 mph - 0.14 in Rain , Thunderstorm Heavy Thunderstorms and Rain
2:30 AM 57.2 °F 55.4 °F 94% 29.66 in 10.0 mi South 3.5 mph - 0.12 in Rain Light Rain
2:41 AM 57.2 °F 55.4 °F 94% 29.66 in 10.0 mi South 5.8 mph - 0.12 in   Overcast
2:54 AM 57.9 °F 55.9 °F 93% 29.65 in 10.0 mi South 3.5 mph - 0.12 in   Overcast
3:17 AM 59.0 °F 55.4 °F 88% 29.64 in 10.0 mi SSE 4.6 mph - N/A   Overcast
3:43 AM 62.6 °F 57.2 °F 82% 29.62 in 10.0 mi SSE 10.4 mph - N/A   Overcast
3:54 AM 62.1 °F 57.9 °F 86% 29.61 in 10.0 mi South 8.1 mph - N/A   Overcast
4:54 AM 63.0 °F 60.1 °F 90% 29.60 in 10.0 mi South 9.2 mph - 0.00 in   Overcast
5:02 AM 62.6 °F 60.8 °F 94% 29.61 in 1.8 mi SSW 6.9 mph - 0.01 in Rain , Thunderstorm Heavy Thunderstorms and Rain
5:11 AM 62.6 °F 60.8 °F 94% 29.62 in 1.2 mi SSW 6.9 mph - 0.20 in Rain , Thunderstorm Heavy Thunderstorms and Rain
5:26 AM 62.6 °F 60.8 °F 94% 29.62 in 2.0 mi South 8.1 mph - 0.44 in Rain , Thunderstorm Thunderstorms and Rain
5:31 AM 62.6 °F 60.8 °F 94% 29.62 in 3.0 mi SSW 12.7 mph - 0.44 in Rain , Thunderstorm Light Thunderstorms and Rain
5:42 AM 62.6 °F 60.8 °F 94% 29.62 in 6.0 mi SSW 6.9 mph - 0.48 in Rain Light Rain
5:54 AM 62.1 °F 60.1 °F 93% 29.61 in 9.0 mi SSW 6.9 mph - 0.48 in   Overcast
6:54 AM 62.1 °F 60.1 °F 93% 29.61 in 8.0 mi SSW 8.1 mph - N/A   Overcast
7:00 AM 62.6 °F 60.8 °F 94% 29.62 in 8.0 mi SSW 5.8 mph - N/A   Overcast
7:54 AM 61.0 °F 60.1 °F 97% 29.61 in 7.0 mi SSW 8.1 mph - N/A   Overcast
8:33 AM 60.8 °F 60.8 °F 100% 29.61 in 6.0 mi SSW 10.4 mph - N/A   Overcast
8:54 AM 61.0 °F 60.1 °F 97% 29.61 in 5.0 mi SSW 10.4 mph - N/A   Overcast
9:54 AM 62.1 °F 61.0 °F 96% 29.61 in 4.0 mi South 11.5 mph - N/A   Mostly Cloudy
10:54 AM 63.0 °F 61.0 °F 93% 29.62 in 6.0 mi South 12.7 mph - N/A   Overcast
11:54 AM 66.0 °F 60.1 °F 81% 29.61 in 10.0 mi SSW 8.1 mph - N/A   Mostly Cloudy
12:31 PM 66.2 °F 57.2 °F 73% 29.61 in 10.0 mi SSW 16.1 mph - N/A   Mostly Cloudy
12:54 PM 68.0 °F 57.9 °F 70% 29.59 in 10.0 mi SSW 10.4 mph 23.0 mph N/A   Mostly Cloudy
1:39 PM 69.8 °F 57.2 °F 64% 29.60 in 10.0 mi SSW 13.8 mph - N/A   Mostly Cloudy
1:54 PM 70.0 °F 57.9 °F 65% 29.59 in 10.0 mi SSW 10.4 mph 20.7 mph N/A   Mostly Cloudy
2:54 PM 72.0 °F 55.9 °F 57% 29.57 in 10.0 mi SSW 18.4 mph 25.3 mph N/A   Mostly Cloudy
3:54 PM 71.1 °F 55.0 °F 57% 29.54 in 10.0 mi SSW 13.8 mph - N/A   Scattered Clouds
4:54 PM 71.1 °F 55.0 °F 57% 29.54 in 10.0 mi SSW 12.7 mph - N/A   Partly Cloudy
5:54 PM 70.0 °F 55.0 °F 59% 29.54 in 10.0 mi South 9.2 mph - N/A   Scattered Clouds
6:54 PM 68.0 °F 55.9 °F 65% 29.53 in 10.0 mi South 10.4 mph - N/A   Clear
7:54 PM 66.9 °F 57.0 °F 70% 29.53 in 10.0 mi SSE 12.7 mph - N/A   Clear
8:54 PM 66.0 °F 57.0 °F 73% 29.52 in 10.0 mi SSE 16.1 mph 23.0 mph N/A   Clear
9:54 PM 64.9 °F 57.0 °F 75% 29.52 in 10.0 mi SSE 15.0 mph - N/A   Clear
10:54 PM 64.9 °F 57.0 °F 75% 29.50 in 10.0 mi SSE 15.0 mph - N/A   Clear
11:54 PM 64.9 °F 57.0 °F 75% 29.48 in 10.0 mi SSE 17.3 mph 24.2 mph N/A   Scattered Clouds